Regional Weather Roundup
Issued by NWS Midland/Odessa, TX

Skip options and go directly to product.
Home | Oldest Version | Previous Version | Current Version | All | Text Only | Save Text | Print | Product List | Glossary Off

Skip product version selection by date and time.   

462
ASUS44 KMAF 221410
RWRMAF
MIDLAND AREA WEATHER ROUNDUP
NATIONAL WEATHER SERVICE MIDLAND TX
900 AM CDT MON SEP 22 2014

...IN SOUTHWEST TEXAS AND SOUTHEAST NEW MEXICO...

CITY           SKY/WX    TMP DP  RH WIND       PRES   REMARKS
ALPINE         CLOUDY    67  62  84 CALM      30.34R
ANDREWS        CLOUDY    67  66  97 E8        30.27R FOG
ARTESIA        NOT AVBL
BIG SPRING     CLOUDY    70  67  92 NE12      30.26R
CARLSBAD       LGT RAIN  68  32  26 SE9       30.23R
DRYDEN           N/A     77  69  76 E10       30.18R
FORT STOCKTON  CLOUDY    70  68  93 E8        30.22R
GUAD PASS      LGT RAIN  62  62 100 E21       30.32  VSB<1/4
HOBBS          CLOUDY    66  66 100 E12       30.28R FOG
MARFA          CLOUDY    64  61  88 E8        30.32R
MIDLAND AIRPK  CLOUDY    70  70  98 E9        30.25R FOG
MIDLAND INTL   CLOUDY    70  68  93 E9        30.24R FOG
ODESSA         CLOUDY    70  67  90 E7        30.25R FOG
PECOS          RAIN      68  67  96 NE3       30.21R
PRESIDIO       CLOUDY    75  64  70 NE13      30.17R
SEMINOLE       CLOUDY    66  65  96 CALM      30.29R FOG
SNYDER         CLOUDY    69  66  92 NE12G17   30.26R
WINK           CLOUDY    71  69  93 E5        30.21R
$$
...OTHER STATIONS IN TEXAS...

CITY           SKY/WX    TMP DP  RH WIND       PRES   REMARKS
ABILENE        MOSUNNY   72  66  81 E10       30.23R
AMARILLO       CLOUDY    60  54  80 SE14      30.33R
AUSTIN         PTSUNNY   75  70  84 N7        30.13R
BROWNSVILLE    MOSUNNY   81  76  84 NE3       30.01R
CORPUS CHRISTI PTSUNNY   78  74  87 NE9       30.06R
DALLAS FTW     PTSUNNY   74  53  48 NE14      30.20R
DEL RIO        MOSUNNY   75  70  84 E5        30.14R
EL PASO        CLOUDY    67  65  93 NW8       30.20R
HOUSTON INT    MOSUNNY   80  70  71 N3        30.08R
LUBBOCK        CLOUDY    64  58  80 E12       30.30R
SAN ANGELO     PTSUNNY   72  67  84 CALM      30.21R
SAN ANTONIO    MOSUNNY   76  66  71 NW6       30.14R
WACO           SUNNY     76  69  79 NE13      30.16R
WICHITA FALLS  NOT AVBL
$$
...OTHER LOCATIONS IN NEW MEXICO...

CITY           SKY/WX    TMP DP  RH WIND       PRES   REMARKS
ALAMAGORDO     CLOUDY    68  63  83 NW7       30.24S
ALBUQUERQUE    PTSUNNY   67  55  65 CALM      30.32R
CANNON AFB     FOG       61  61 100 SE10      30.33R VSB 5/8
CLOVIS           N/A     61  59  94 E15       30.35S VSB 1/2
HOLLOMAN AFB   CLOUDY    67  64  89 N3        30.22R
ROSWELL        CLOUDY    67  65  93 E6        30.26R
RUIDOSO        CLOUDY    57  57 100 E7        30.42R FOG
SANTA FE       CLOUDY    61  55  81 S12       30.38R
TRUTH OR CONSE CLOUDY    67  61  81 NE3       30.26R
TUCUMCARI      CLOUDY    64  60  87 E7        30.31R
$$

USA.gov is the U.S. government's official web portal to all federal, state and local government web resources and services.